Language: 


Des rapports , des résumés tant et plus, au choix de chacun....


Données statistiques de la station
Quotidien Rapport Décembre 3, 2017 Unités:  Anglais    Métrique   les deux
« Précédent Jour
Suivant Jour »
Quotidien Hebdomadaire Mensuel Annuel Actuel
  Haut: Bas: Moyen:
Température: 43.7 °F 30 °F 37 °F
Pt de rosée: 44.6 °F 28.4 °F 36.9 °F
Humidité: 98 % 98 % 98 %
Vitesse du vent: 6 mph 0 mph 1.2 mph
Rafales: 228.9 mph - -
Vent:- - SSW
Pression: 30.4 in 30.2 in -
Précipitation: 0.11 in    
Historical Graphs
 
 
Données statistiques pour Décembre 3, 2017
Heure Température Point de rosée Pression Vent Vitesse du vent Refales Humidité Pluie (taux horaire)
00:00 30 °F 28.4 °F 30.3 in SSW 2.9 mph 4.3 mph 98 % 0 in
00:05 30 °F 28.4 °F 30.3 in Calm   4.3 mph 98 % 0 in
00:10 30 °F 28.4 °F 30.3 in Calm   0.9 mph 98 % 0 in
00:15 30 °F 28.4 °F 30.3 in Calm     98 % 0 in
00:30 30 °F 28.4 °F 30.3 in Calm   5.6 mph 98 % 0 in
00:35 30 °F 28.4 °F 30.3 in Calm   3.8 mph 98 % 0 in
00:40 30 °F 28.4 °F 30.3 in Calm   0.9 mph 98 % 0 in
00:42 30 °F 28.4 °F 30.3 in Calm   0.9 mph 98 % 0 in
00:47 30 °F 28.4 °F 30.3 in SSW 3.8 mph 4.7 mph 98 % 0 in
00:52 30 °F 28.4 °F 30.3 in Calm   4.7 mph 98 % 0 in
00:57 30.2 °F 28.4 °F 30.3 in Calm   3.8 mph 98 % 0 in
01:02 30.2 °F 28.4 °F 30.3 in Calm   3.8 mph 98 % 0 in
01:07 30.2 °F 28.4 °F 30.3 in Calm   3.6 mph 98 % 0 in
01:12 30.2 °F 28.4 °F 30.3 in Calm   2.2 mph 98 % 0 in
01:17 30.2 °F 28.4 °F 30.3 in South 3.1 mph 3.4 mph 98 % 0 in
01:22 30.2 °F 28.4 °F 30.3 in Calm   3.4 mph 98 % 0 in
01:27 30.2 °F 28.4 °F 30.3 in SSW 2.2 mph 3.1 mph 98 % 0 in
01:38 30.2 °F 28.4 °F 30.3 in Calm   4 mph 98 % 0 in
01:43 30.4 °F 28.4 °F 30.3 in South 3.8 mph 4 mph 98 % 0 in
01:58 30.4 °F 28.4 °F 30.3 in SSW 2.7 mph 4.3 mph 98 % 0 in
02:03 30.4 °F 28.4 °F 30.3 in Calm   4.7 mph 98 % 0 in
02:08 30.6 °F 28.4 °F 30.3 in Calm   4.7 mph 98 % 0 in
02:13 30.6 °F 28.4 °F 30.3 in SSW 2.7 mph 3.8 mph 98 % 0 in
02:18 30.6 °F 28.4 °F 30.3 in Calm   5.8 mph 98 % 0 in
02:23 30.6 °F 28.4 °F 30.3 in South 3.4 mph 6.3 mph 98 % 0 in
02:28 30.6 °F 28.4 °F 30.3 in SSW 3.4 mph 6.3 mph 98 % 0 in
02:38 30.7 °F 30.2 °F 30.3 in SSW 3.4 mph 5.8 mph 98 % 0 in
02:43 30.7 °F 30.2 °F 30.3 in SSW 5.4 mph 5.8 mph 98 % 0 in
03:04 31.1 °F 30.2 °F 30.3 in South 3.1 mph 4.7 mph 98 % 0 in
03:09 31.1 °F 30.2 °F 30.3 in SSW 2.9 mph 5.4 mph 98 % 0 in
03:29 31.1 °F 30.2 °F 30.3 in SSW 3.4 mph 5.8 mph 98 % 0 in
03:49 31.3 °F 30.2 °F 30.3 in SSW 3.4 mph 7.4 mph 98 % 0 in
03:54 31.5 °F 30.2 °F 30.3 in Calm   7.4 mph 98 % 0 in
03:59 31.5 °F 30.2 °F 30.3 in SSW 1.6 mph 6.3 mph 98 % 0 in
04:02 31.5 °F 30.2 °F 30.3 in SSW 4.9 mph 6.3 mph 98 % 0 in
04:07 31.5 °F 30.2 °F 30.3 in South 4.7 mph 6.3 mph 98 % 0 in
04:12 31.6 °F 30.2 °F 30.2 in SSW 3.8 mph 4.9 mph 98 % 0 in
04:17 31.6 °F 30.2 °F 30.2 in SSW 2.7 mph 4.3 mph 98 % 0 in
04:22 31.6 °F 30.2 °F 30.2 in South 4 mph 6.3 mph 98 % 0 in
04:27 31.8 °F 30.2 °F 30.2 in SSW 5.4 mph 6.3 mph 98 % 0 in
04:32 31.8 °F 30.2 °F 30.2 in SSE 2.7 mph 6.3 mph 98 % 0 in
04:33 31.8 °F 30.2 °F 30.2 in South 4 mph 6.3 mph 98 % 0 in
04:38 31.8 °F 30.2 °F 30.2 in South 3.8 mph 5.8 mph 98 % 0 in
04:43 31.8 °F 30.2 °F 30.2 in South 3.4 mph 5.8 mph 98 % 0 in
04:48 32 °F 30.2 °F 30.2 in SSW 3.1 mph 5.4 mph 98 % 0 in
04:53 32 °F 30.2 °F 30.2 in Calm   5.4 mph 98 % 0 in
04:58 32 °F 30.2 °F 30.2 in SSW 6 mph 6.9 mph 98 % 0 in
05:08 32.2 °F 32 °F 30.2 in Calm   6.3 mph 98 % 0 in
05:18 32.2 °F 32 °F 30.2 in Calm   4.9 mph 98 % 0 in
05:28 32.4 °F 32 °F 30.2 in South 4.3 mph 4.9 mph 98 % 0 in
05:33 32.4 °F 32 °F 30.2 in Calm   4.9 mph 98 % 0 in
05:38 32.5 °F 33.8 °F 30.2 in Calm   2.7 mph 98 % 0 in
05:43 32.5 °F 33.8 °F 30.2 in Calm   3.1 mph 98 % 0 in
05:53 32.5 °F 33.8 °F 30.2 in Calm   4 mph 98 % 0 in
05:58 32.7 °F 33.8 °F 30.2 in Calm     98 % 0 in
06:03 32.7 °F 33.8 °F 30.2 in South 3.6 mph 4.3 mph 98 % 0 in
06:13 32.7 °F 33.8 °F 30.2 in South 3.6 mph 4.3 mph 98 % 0 in
06:19 32.7 °F 33.8 °F 30.2 in Calm   4 mph 98 % 0 in
06:29 32.9 °F 33.8 °F 30.2 in South 4 mph 5.6 mph 98 % 0 in
06:34 32.9 °F 33.8 °F 30.2 in South 1.3 mph 5.4 mph 98 % 0 in
06:39 32.9 °F 33.8 °F 30.2 in SSW 3.8 mph 5.4 mph 98 % 0 in
06:44 32.9 °F 33.8 °F 30.2 in South 4.9 mph 6 mph 98 % 0 in
06:49 33.1 °F 33.8 °F 30.2 in SSW 3.4 mph 6 mph 98 % 0 in
06:54 33.1 °F 33.8 °F 30.2 in Calm   5.4 mph 98 % 0 in
06:59 33.1 °F 33.8 °F 30.2 in Calm   5.6 mph 98 % 0 in
07:09 33.1 °F 33.8 °F 30.2 in South 4.3 mph 5.4 mph 98 % 0 in
07:24 33.1 °F 33.8 °F 30.2 in South 5.6 mph 6 mph 98 % 0 in
07:34 33.1 °F 33.8 °F 30.2 in South 4.3 mph 6.5 mph 98 % 0 in
07:39 33.3 °F 33.8 °F 30.2 in South 4 mph 6 mph 98 % 0 in
07:44 33.3 °F 33.8 °F 30.2 in South 4.3 mph 5.6 mph 98 % 0 in
07:54 33.3 °F 33.8 °F 30.2 in SSW 2.2 mph 5.6 mph 98 % 0 in
07:59 33.3 °F 33.8 °F 30.2 in Calm   6 mph 98 % 0 in
08:04 33.3 °F 33.8 °F 30.2 in Calm   6 mph 98 % 0 in
08:10 33.3 °F 33.8 °F 30.2 in Calm     98 % 0 in
08:22 33.3 °F 33.8 °F 30.2 in Calm     98 % 0 in
08:27 33.3 °F 33.8 °F 30.2 in Calm     98 % 0 in
08:38 33.4 °F 33.8 °F 30.2 in South 1.3 mph 6.5 mph 98 % 0 in
08:39 33.4 °F 33.8 °F 30.2 in SSW 4.9 mph 6.5 mph 98 % 0 in
08:44 33.4 °F 33.8 °F 30.2 in SSW 3.1 mph 4.9 mph 98 % 0 in
08:49 33.4 °F 33.8 °F 30.2 in South 2.5 mph 4.9 mph 98 % 0 in
08:54 33.6 °F 33.8 °F 30.2 in South 5.6 mph 5.6 mph 98 % 0 in
08:59 33.6 °F 33.8 °F 30.2 in South 3.4 mph 6.5 mph 98 % 0 in
09:04 33.6 °F 33.8 °F 30.2 in SSW 4 mph 6.5 mph 98 % 0 in
09:09 33.6 °F 33.8 °F 30.2 in Calm   4.3 mph 98 % 0 in
09:14 33.6 °F 33.8 °F 30.2 in Calm   4.3 mph 98 % 0 in
09:19 33.6 °F 33.8 °F 30.2 in Calm   4 mph 98 % 0 in
09:34 33.8 °F 33.8 °F 30.3 in SSW 3.8 mph 5.8 mph 98 % 0 in
09:39 33.8 °F 33.8 °F 30.3 in Calm   5.4 mph 98 % 0 in
09:44 34 °F 33.8 °F 30.3 in SSW 2.7 mph 5.6 mph 98 % 0 in
09:55 34 °F 33.8 °F 30.3 in South 2.9 mph 6 mph 98 % 0.01 in
10:00 34 °F 33.8 °F 30.3 in South 5.6 mph 6.9 mph 98 % 0.01 in
10:05 34 °F 33.8 °F 30.3 in SSW 2.7 mph 6.9 mph 98 % 0.01 in
10:10 34.2 °F 33.8 °F 30.3 in SSW 3.6 mph 5.8 mph 98 % 0.01 in
10:30 34.3 °F 33.8 °F 30.3 in SSW 2.2 mph 5.8 mph 98 % 0.01 in
10:40 34.7 °F 35.6 °F 30.3 in SSW 3.8 mph 4.9 mph 98 % 0.01 in
10:45 34.9 °F 35.6 °F 30.3 in Calm   4.9 mph 98 % 0.01 in
10:50 35.1 °F 35.6 °F 30.3 in South 4 mph 4.7 mph 98 % 0.01 in
10:55 35.1 °F 35.6 °F 30.3 in Calm   4.7 mph 98 % 0 in
11:00 35.1 °F 35.6 °F 30.3 in South 2.9 mph 4.3 mph 98 % 0 in
11:05 35.2 °F 35.6 °F 30.3 in Calm   4.3 mph 98 % 0 in
11:10 35.2 °F 35.6 °F 30.3 in SW 2.7 mph 4.3 mph 98 % 0 in
11:15 35.4 °F 35.6 °F 30.3 in SSW 3.6 mph 5.6 mph 98 % 0 in
11:20 35.6 °F 35.6 °F 30.3 in SSW 4 mph 5.6 mph 98 % 0 in
11:25 35.8 °F 35.6 °F 30.3 in Calm   4.9 mph 98 % 0 in
11:30 35.8 °F 35.6 °F 30.3 in South 4.9 mph 4.9 mph 98 % 0 in
11:35 35.8 °F 35.6 °F 30.3 in South 3.1 mph 6.5 mph 98 % 0 in
11:41 35.8 °F 35.6 °F 30.3 in SW 3.4 mph 6.5 mph 98 % 0 in
11:42 36 °F 35.6 °F 30.3 in SSW 3.6 mph 5.4 mph 98 % 0 in
11:47 36 °F 35.6 °F 30.3 in SSW 5.6 mph 5.6 mph 98 % 0 in
11:52 36 °F 35.6 °F 30.3 in SSW 4.5 mph 5.8 mph 98 % 0 in
11:57 36.1 °F 37.4 °F 30.3 in Calm   5.8 mph 98 % 0 in
12:02 36.3 °F 37.4 °F 30.3 in SSW 4.3 mph 5.6 mph 98 % 0 in
12:07 36.3 °F 37.4 °F 30.3 in SSW 2.2 mph 6 mph 98 % 0 in
12:12 36.3 °F 37.4 °F 30.3 in Calm   6.3 mph 98 % 0 in
12:17 36.5 °F 37.4 °F 30.3 in SW 4.9 mph 6.3 mph 98 % 0 in
12:22 36.7 °F 37.4 °F 30.3 in South 4.3 mph 5.4 mph 98 % 0 in
12:28 36.7 °F 37.4 °F 30.3 in SSW 3.1 mph 4.9 mph 98 % 0 in
12:33 36.9 °F 37.4 °F 30.3 in Calm   4.7 mph 98 % 0 in
12:38 37 °F 37.4 °F 30.3 in Calm   3.8 mph 98 % 0 in
12:43 37.4 °F 37.4 °F 30.3 in SW 3.8 mph 4.7 mph 98 % 0 in
12:48 37.4 °F 37.4 °F 30.3 in Calm   4.7 mph 98 % 0 in
12:53 37.6 °F 37.4 °F 30.3 in SW 2.7 mph 4 mph 98 % 0 in
12:54 37.6 °F 37.4 °F 30.3 in SW 3.8 mph 4 mph 98 % 0 in
12:59 37.8 °F 37.4 °F 30.3 in SSW 0.9 mph 3.8 mph 98 % 0 in
13:04 37.8 °F 37.4 °F 30.3 in SW 2.5 mph 4 mph 98 % 0 in
13:09 37.9 °F 37.4 °F 30.3 in WSW 3.1 mph 4.3 mph 98 % 0 in
13:14 38.1 °F 37.4 °F 30.3 in SSW 2.9 mph 4.3 mph 98 % 0 in
13:19 38.1 °F 37.4 °F 30.3 in Calm   4.7 mph 98 % 0 in
13:24 38.1 °F 37.4 °F 30.3 in Calm   4.7 mph 98 % 0 in
13:29 38.3 °F 39.2 °F 30.3 in Calm   3.6 mph 98 % 0 in
13:34 38.3 °F 39.2 °F 30.3 in Calm   2.7 mph 98 % 0 in
13:39 38.5 °F 39.2 °F 30.3 in Calm   2.7 mph 98 % 0 in
13:44 38.5 °F 39.2 °F 30.3 in SSW 2.5 mph 2.5 mph 98 % 0 in
13:49 38.5 °F 39.2 °F 30.3 in SW 2.5 mph 2.7 mph 98 % 0 in
13:54 38.5 °F 39.2 °F 30.3 in Calm   2.7 mph 98 % 0 in
13:59 38.7 °F 39.2 °F 30.3 in Calm   2.7 mph 98 % 0 in
14:04 38.8 °F 39.2 °F 30.3 in Calm   2.9 mph 98 % 0 in
14:09 39 °F 39.2 °F 30.3 in SSW 1.6 mph 3.8 mph 98 % 0 in
14:14 39.2 °F 39.2 °F 30.3 in Calm   3.8 mph 98 % 0 in
14:19 39.4 °F 39.2 °F 30.3 in Calm   2.9 mph 98 % 0 in
14:24 39.4 °F 39.2 °F 30.3 in Calm   3.4 mph 98 % 0 in
14:29 39.4 °F 39.2 °F 30.3 in SW 1.6 mph 3.4 mph 98 % 0 in
14:34 39.4 °F 39.2 °F 30.3 in South 2.2 mph 2.7 mph 98 % 0.01 in
14:39 39.4 °F 39.2 °F 30.3 in Calm   3.6 mph 98 % 0.01 in
14:44 39.2 °F 39.2 °F 30.2 in South 1.3 mph 3.6 mph 98 % 0.01 in
14:49 39.2 °F 39.2 °F 30.2 in Calm   3.1 mph 98 % 0.01 in
14:51 39.2 °F 39.2 °F 30.2 in SSW 0.9 mph 3.1 mph 98 % 0.01 in
14:56 39.2 °F 39.2 °F 30.3 in Calm   3.8 mph 98 % 0.01 in
15:02 39.2 °F 39.2 °F 30.3 in Calm   3.8 mph 98 % 0.01 in
15:07 39.2 °F 39.2 °F 30.3 in South 1.6 mph 2.2 mph 98 % 0.01 in
15:12 39.4 °F 39.2 °F 30.3 in Calm   2.2 mph 98 % 0.01 in
15:17 39.4 °F 39.2 °F 30.3 in Calm   2.2 mph 98 % 0.01 in
15:22 39.6 °F 39.2 °F 30.3 in Calm   0.9 mph 98 % 0.01 in
15:27 39.6 °F 39.2 °F 30.3 in Calm     98 % 0.01 in
15:32 39.6 °F 39.2 °F 30.3 in Calm     98 % 0 in
15:37 39.7 °F 39.2 °F 30.3 in Calm     98 % 0 in
15:42 39.7 °F 39.2 °F 30.3 in Calm     98 % 0 in
15:47 39.7 °F 39.2 °F 30.3 in Calm   1.1 mph 98 % 0 in
15:52 39.7 °F 39.2 °F 30.3 in Calm   1.3 mph 98 % 0 in
15:57 39.7 °F 39.2 °F 30.3 in Calm   1.3 mph 98 % 0 in
16:02 39.7 °F 39.2 °F 30.3 in Calm     98 % 0 in
16:07 39.9 °F 39.2 °F 30.3 in Calm   2.5 mph 98 % 0 in
16:12 39.9 °F 39.2 °F 30.3 in Calm   2.5 mph 98 % 0.01 in
16:17 39.9 °F 39.2 °F 30.3 in Calm   0.9 mph 98 % 0.01 in
16:22 39.7 °F 39.2 °F 30.3 in Calm   1.3 mph 98 % 0.01 in
16:27 39.7 °F 39.2 °F 30.3 in South 1.3 mph 1.3 mph 98 % 0.01 in
16:32 39.7 °F 39.2 °F 30.3 in Calm   1.3 mph 98 % 0.01 in
16:37 39.7 °F 39.2 °F 30.3 in Calm     98 % 0.01 in
16:42 39.9 °F 39.2 °F 30.2 in Calm     98 % 0.01 in
16:47 39.9 °F 39.2 °F 30.2 in Calm     98 % 0.01 in
16:52 39.9 °F 39.2 °F 30.2 in Calm     98 % 0.01 in
16:57 39.9 °F 39.2 °F 30.3 in Calm     98 % 0.01 in
17:02 40.1 °F 41 °F 30.3 in Calm     98 % 0.01 in
17:07 40.1 °F 41 °F 30.3 in Calm     98 % 0.01 in
17:13 40.3 °F 41 °F 30.2 in Calm     98 % 0 in
17:18 40.3 °F 41 °F 30.2 in Calm     98 % 0 in
17:23 40.3 °F 41 °F 30.2 in Calm     98 % 0 in
17:28 40.3 °F 41 °F 30.3 in Calm     98 % 0 in
17:33 40.3 °F 41 °F 30.3 in Calm     98 % 0 in
17:38 40.3 °F 41 °F 30.3 in Calm     98 % 0 in
17:43 40.3 °F 41 °F 30.2 in Calm     98 % 0 in
17:48 40.5 °F 41 °F 30.2 in Calm   228.9 mph 98 % 0 in
17:53 40.5 °F 41 °F 30.2 in Calm   228.9 mph 98 % 0 in
17:58 40.5 °F 41 °F 30.3 in Calm     98 % 0 in
18:03 40.5 °F 41 °F 30.3 in Calm     98 % 0.01 in
18:08 40.6 °F 41 °F 30.3 in Calm     98 % 0.01 in
18:13 40.6 °F 41 °F 30.3 in Calm     98 % 0.01 in
18:18 40.8 °F 41 °F 30.3 in Calm     98 % 0.01 in
18:23 41 °F 41 °F 30.3 in Calm     98 % 0.01 in
18:28 41 °F 41 °F 30.3 in Calm     98 % 0.01 in
18:33 41 °F 41 °F 30.3 in Calm     98 % 0.01 in
18:38 41 °F 41 °F 30.3 in Calm     98 % 0.01 in
18:44 41 °F 41 °F 30.3 in Calm     98 % 0.01 in
18:49 41 °F 41 °F 30.3 in Calm     98 % 0.01 in
18:54 41 °F 41 °F 30.3 in Calm     98 % 0.01 in
18:59 41 °F 41 °F 30.3 in Calm     98 % 0.01 in
19:04 41.2 °F 41 °F 30.3 in Calm     98 % 0 in
19:09 41.5 °F 42.8 °F 30.3 in Calm     98 % 0 in
19:14 41.5 °F 42.8 °F 30.3 in Calm     98 % 0.01 in
19:19 41.7 °F 42.8 °F 30.3 in Calm     98 % 0.01 in
19:24 42.1 °F 42.8 °F 30.3 in Calm     98 % 0.01 in
19:29 42.1 °F 42.8 °F 30.3 in Calm     98 % 0.01 in
19:34 42.3 °F 42.8 °F 30.3 in Calm   3.1 mph 98 % 0.01 in
19:39 42.3 °F 42.8 °F 30.3 in WSW 4 mph 4 mph 98 % 0.01 in
19:44 42.4 °F 42.8 °F 30.3 in Calm   4 mph 98 % 0.01 in
19:49 42.4 °F 42.8 °F 30.3 in Calm     98 % 0.01 in
19:54 42.4 °F 42.8 °F 30.3 in Calm     98 % 0.01 in
19:59 42.6 °F 42.8 °F 30.3 in Calm     98 % 0.01 in
20:04 42.6 °F 42.8 °F 30.3 in Calm     98 % 0.01 in
20:09 42.6 °F 42.8 °F 30.3 in West 1.1 mph 5.4 mph 98 % 0.01 in
20:14 42.6 °F 42.8 °F 30.3 in Calm   5.4 mph 98 % 0.01 in
20:19 42.4 °F 42.8 °F 30.3 in Calm   4.9 mph 98 % 0.01 in
20:29 42.6 °F 42.8 °F 30.3 in West 3.4 mph 5.6 mph 98 % 0.01 in
20:34 42.6 °F 42.8 °F 30.3 in Calm   5.6 mph 98 % 0.01 in
20:39 42.6 °F 42.8 °F 30.3 in Calm   5.6 mph 98 % 0.01 in
20:45 42.6 °F 42.8 °F 30.3 in Calm   5.6 mph 98 % 0.01 in
20:50 42.6 °F 42.8 °F 30.3 in Calm   4.3 mph 98 % 0.01 in
20:55 42.6 °F 42.8 °F 30.3 in Calm   3.6 mph 98 % 0.01 in
21:00 42.6 °F 42.8 °F 30.3 in Calm   3.6 mph 98 % 0.01 in
21:05 42.6 °F 42.8 °F 30.3 in Calm   2.5 mph 98 % 0.01 in
21:10 42.6 °F 42.8 °F 30.3 in Calm     98 % 0.01 in
21:15 42.6 °F 42.8 °F 30.3 in Calm   4.3 mph 98 % 0 in
21:20 42.6 °F 42.8 °F 30.3 in Calm   4.3 mph 98 % 0 in
21:25 42.6 °F 42.8 °F 30.3 in Calm   4 mph 98 % 0 in
21:30 42.6 °F 42.8 °F 30.3 in Calm   4 mph 98 % 0 in
21:35 42.6 °F 42.8 °F 30.3 in Calm     98 % 0 in
21:40 42.6 °F 42.8 °F 30.3 in Calm     98 % 0.01 in
21:41 42.6 °F 42.8 °F 30.3 in Calm     98 % 0.01 in
21:46 42.6 °F 42.8 °F 30.3 in Calm   1.6 mph 98 % 0.01 in
21:51 42.8 °F 42.8 °F 30.3 in Calm   1.6 mph 98 % 0.01 in
22:01 42.6 °F 42.8 °F 30.3 in Calm     98 % 0.01 in
22:06 42.6 °F 42.8 °F 30.3 in Calm     98 % 0.01 in
22:11 42.6 °F 42.8 °F 30.3 in Calm   2.2 mph 98 % 0.01 in
22:21 42.6 °F 42.8 °F 30.3 in Calm   2.7 mph 98 % 0.01 in
22:26 42.4 °F 42.8 °F 30.3 in Calm     98 % 0.01 in
22:31 42.6 °F 42.8 °F 30.3 in Calm     98 % 0.01 in
22:36 42.6 °F 42.8 °F 30.3 in Calm     98 % 0.01 in
22:41 42.4 °F 42.8 °F 30.3 in Calm     98 % 0 in
22:46 42.4 °F 42.8 °F 30.3 in Calm     98 % 0 in
22:51 42.4 °F 42.8 °F 30.3 in Calm     98 % 0 in
22:56 42.4 °F 42.8 °F 30.3 in Calm     98 % 0 in
23:01 42.4 °F 42.8 °F 30.3 in Calm     98 % 0 in
23:06 42.4 °F 42.8 °F 30.3 in Calm     98 % 0 in
23:11 42.4 °F 42.8 °F 30.3 in Calm     98 % 0 in
23:16 42.4 °F 42.8 °F 30.3 in Calm     98 % 0 in
23:17 42.4 °F 42.8 °F 30.3 in Calm     98 % 0 in
23:22 42.6 °F 42.8 °F 30.3 in NE 0.9 mph 5.8 mph 98 % 0.01 in
23:33 42.8 °F 42.8 °F 30.3 in Calm     98 % 0.01 in
23:38 43 °F 42.8 °F 30.3 in Calm     98 % 0.01 in
23:43 43.2 °F 42.8 °F 30.3 in Calm     98 % 0.01 in
23:48 43.3 °F 42.8 °F 30.3 in Calm     98 % 0.03 in
23:53 43.5 °F 42.8 °F 30.3 in Calm     98 % 0.03 in
23:58 43.7 °F 44.6 °F 30.4 in Calm     98 % 0.03 in
Le Gheer Warneton
Courtoisie de Weather Underground - 2.25 mb

Mise a jour : 18/12/2017 04:16:12
Généré par Cumulus 1.9.4 (1099)